Year,Month,Day,Hour,Minute,Value (Times are PST for temperature in C)
2014,07,27,00,00,14.80
2014,07,27,00,01,14.80
2014,07,27,00,02,14.80
2014,07,27,00,03,14.80
2014,07,27,00,04,14.80
2014,07,27,00,05,14.70
2014,07,27,00,06,14.70
2014,07,27,00,07,14.70
2014,07,27,00,08,14.70
2014,07,27,00,09,14.70
2014,07,27,00,10,14.70
2014,07,27,00,11,14.60
2014,07,27,00,12,14.60
2014,07,27,00,13,14.60
2014,07,27,00,14,14.60
2014,07,27,00,15,14.60
2014,07,27,00,16,14.60
2014,07,27,00,17,14.60
2014,07,27,00,18,14.60
2014,07,27,00,19,14.60
2014,07,27,00,20,14.60
2014,07,27,00,21,14.60
2014,07,27,00,22,14.70
2014,07,27,00,23,14.70
2014,07,27,00,24,14.70
2014,07,27,00,25,14.70
2014,07,27,00,26,14.60
2014,07,27,00,27,14.60
2014,07,27,00,28,14.50
2014,07,27,00,29,14.50
2014,07,27,00,30,14.40
2014,07,27,00,31,14.40
2014,07,27,00,32,14.30
2014,07,27,00,33,14.30
2014,07,27,00,34,14.20
2014,07,27,00,35,14.20
2014,07,27,00,36,14.20
2014,07,27,00,37,14.20
2014,07,27,00,38,14.20
2014,07,27,00,39,14.10
2014,07,27,00,40,14.00
2014,07,27,00,41,14.00
2014,07,27,00,42,13.90
2014,07,27,00,43,13.90
2014,07,27,00,44,13.80
2014,07,27,00,45,13.80
2014,07,27,00,46,13.70
2014,07,27,00,47,13.70
2014,07,27,00,48,13.70
2014,07,27,00,49,13.70
2014,07,27,00,50,13.70
2014,07,27,00,51,13.60
2014,07,27,00,52,13.60
2014,07,27,00,53,13.70
2014,07,27,00,54,13.70
2014,07,27,00,55,13.70
2014,07,27,00,56,13.80
2014,07,27,00,57,13.80
2014,07,27,00,58,13.80
2014,07,27,00,59,13.80
2014,07,27,01,00,13.80
2014,07,27,01,01,13.80
2014,07,27,01,02,13.80
2014,07,27,01,03,13.80
2014,07,27,01,04,13.80
2014,07,27,01,05,13.80
2014,07,27,01,06,13.80
2014,07,27,01,07,13.90
2014,07,27,01,08,13.90
2014,07,27,01,09,13.90
2014,07,27,01,10,13.90
2014,07,27,01,11,13.90
2014,07,27,01,12,13.90
2014,07,27,01,13,13.90
2014,07,27,01,14,13.90
2014,07,27,01,15,13.90
2014,07,27,01,16,13.90
2014,07,27,01,17,13.90
2014,07,27,01,18,13.90
2014,07,27,01,19,13.90
2014,07,27,01,20,13.90
2014,07,27,01,21,13.90
2014,07,27,01,22,13.90
2014,07,27,01,23,13.90
2014,07,27,01,24,13.80
2014,07,27,01,25,13.80
2014,07,27,01,26,13.80
2014,07,27,01,27,13.80
2014,07,27,01,28,13.80
2014,07,27,01,29,13.80
2014,07,27,01,30,13.80
2014,07,27,01,31,13.70
2014,07,27,01,32,13.70
2014,07,27,01,33,13.70
2014,07,27,01,34,13.70
2014,07,27,01,35,13.70
2014,07,27,01,36,13.70
2014,07,27,01,37,13.70
2014,07,27,01,38,13.70
2014,07,27,01,39,13.70
2014,07,27,01,40,13.60
2014,07,27,01,41,13.60
2014,07,27,01,42,13.60
2014,07,27,01,43,13.50
2014,07,27,01,44,13.50
2014,07,27,01,45,13.50
2014,07,27,01,46,13.40
2014,07,27,01,47,13.40
2014,07,27,01,48,13.40
2014,07,27,01,49,13.40
2014,07,27,01,50,13.30
2014,07,27,01,51,13.30
2014,07,27,01,52,13.30
2014,07,27,01,53,13.30
2014,07,27,01,54,13.30
2014,07,27,01,55,13.30
2014,07,27,01,56,13.30
2014,07,27,01,57,13.20
2014,07,27,01,58,13.20
2014,07,27,01,59,13.20
2014,07,27,02,00,13.20
2014,07,27,02,01,13.20
2014,07,27,02,02,13.20
2014,07,27,02,03,13.10
2014,07,27,02,04,13.10
2014,07,27,02,05,13.10
2014,07,27,02,06,13.00
2014,07,27,02,07,13.00
2014,07,27,02,08,12.90
2014,07,27,02,09,12.90
2014,07,27,02,10,12.90
2014,07,27,02,11,12.90
2014,07,27,02,12,12.80
2014,07,27,02,13,12.80
2014,07,27,02,14,12.80
2014,07,27,02,15,12.80
2014,07,27,02,16,12.80
2014,07,27,02,17,12.70
2014,07,27,02,18,12.70
2014,07,27,02,19,12.70
2014,07,27,02,20,12.70
2014,07,27,02,21,12.60
2014,07,27,02,22,12.60
2014,07,27,02,23,12.60
2014,07,27,02,24,12.60
2014,07,27,02,25,12.60
2014,07,27,02,26,12.60
2014,07,27,02,27,12.60
2014,07,27,02,28,12.60
2014,07,27,02,29,12.50
2014,07,27,02,30,12.50
2014,07,27,02,31,12.50
2014,07,27,02,32,12.50
2014,07,27,02,33,12.50
2014,07,27,02,34,12.50
2014,07,27,02,35,12.50
2014,07,27,02,36,12.50
2014,07,27,02,37,12.50
2014,07,27,02,38,12.40
2014,07,27,02,39,12.40
2014,07,27,02,40,12.40
2014,07,27,02,41,12.40
2014,07,27,02,42,12.40
2014,07,27,02,43,12.40
2014,07,27,02,44,12.30
2014,07,27,02,45,12.30
2014,07,27,02,46,12.30
2014,07,27,02,47,12.30
2014,07,27,02,48,12.20
2014,07,27,02,49,12.20
2014,07,27,02,50,12.10
2014,07,27,02,51,12.10
2014,07,27,02,52,12.00
2014,07,27,02,53,12.00
2014,07,27,02,54,12.00
2014,07,27,02,55,11.90
2014,07,27,02,56,11.90
2014,07,27,02,57,11.90
2014,07,27,02,58,11.90
2014,07,27,02,59,11.90
2014,07,27,03,00,11.90
2014,07,27,03,01,11.90
2014,07,27,03,02,11.90
2014,07,27,03,03,11.90
2014,07,27,03,04,11.90
2014,07,27,03,05,11.90
2014,07,27,03,06,11.90
2014,07,27,03,07,11.90
2014,07,27,03,08,11.90
2014,07,27,03,09,11.90
2014,07,27,03,10,11.80
2014,07,27,03,11,11.80
2014,07,27,03,12,11.80
2014,07,27,03,13,11.80
2014,07,27,03,14,11.80
2014,07,27,03,15,11.80
2014,07,27,03,16,11.70
2014,07,27,03,17,11.70
2014,07,27,03,18,11.70
2014,07,27,03,19,11.70
2014,07,27,03,20,11.70
2014,07,27,03,21,11.70
2014,07,27,03,22,11.70
2014,07,27,03,23,11.70
2014,07,27,03,24,11.70
2014,07,27,03,25,11.60
2014,07,27,03,26,11.60
2014,07,27,03,27,11.60
2014,07,27,03,28,11.60
2014,07,27,03,29,11.50
2014,07,27,03,30,11.50
2014,07,27,03,31,11.40
2014,07,27,03,32,11.40
2014,07,27,03,33,11.40
2014,07,27,03,34,11.40
2014,07,27,03,35,11.40
2014,07,27,03,36,11.30
2014,07,27,03,37,11.30
2014,07,27,03,38,11.30
2014,07,27,03,39,11.30
2014,07,27,03,40,11.20
2014,07,27,03,41,11.20
2014,07,27,03,42,11.20
2014,07,27,03,43,11.20
2014,07,27,03,44,11.20
2014,07,27,03,45,11.10
2014,07,27,03,46,11.10
2014,07,27,03,47,11.10
2014,07,27,03,48,11.10
2014,07,27,03,49,11.10
2014,07,27,03,50,11.00
2014,07,27,03,51,11.00
2014,07,27,03,52,11.00
2014,07,27,03,53,10.90
2014,07,27,03,54,10.90
2014,07,27,03,55,10.90
2014,07,27,03,56,10.90
2014,07,27,03,57,10.90
2014,07,27,03,58,10.90
2014,07,27,03,59,10.90
2014,07,27,04,00,10.90
2014,07,27,04,01,10.90
2014,07,27,04,02,10.90
2014,07,27,04,03,10.90
2014,07,27,04,04,10.90
2014,07,27,04,05,10.90
2014,07,27,04,06,10.90
2014,07,27,04,07,10.90
2014,07,27,04,08,10.90
2014,07,27,04,09,10.80
2014,07,27,04,10,10.80
2014,07,27,04,11,10.80
2014,07,27,04,12,10.80
2014,07,27,04,13,10.80
2014,07,27,04,14,10.80
2014,07,27,04,15,10.80
2014,07,27,04,16,10.80
2014,07,27,04,17,10.80
2014,07,27,04,18,10.80
2014,07,27,04,19,10.70
2014,07,27,04,20,10.70
2014,07,27,04,21,10.70
2014,07,27,04,22,10.70
2014,07,27,04,23,10.70
2014,07,27,04,24,10.70
2014,07,27,04,25,10.70
2014,07,27,04,26,10.70
2014,07,27,04,27,10.70
2014,07,27,04,28,10.70
2014,07,27,04,29,10.70
2014,07,27,04,30,10.70
2014,07,27,04,31,10.70
2014,07,27,04,32,10.70
2014,07,27,04,33,10.70
2014,07,27,04,34,10.70
2014,07,27,04,35,10.70
2014,07,27,04,36,10.60
2014,07,27,04,37,10.60
2014,07,27,04,38,10.60
2014,07,27,04,39,10.60
2014,07,27,04,40,10.60
2014,07,27,04,41,10.60
2014,07,27,04,42,10.60
2014,07,27,04,43,10.60
2014,07,27,04,44,10.60
2014,07,27,04,45,10.60
2014,07,27,04,46,10.60
2014,07,27,04,47,10.60
2014,07,27,04,48,10.60
2014,07,27,04,49,10.60
2014,07,27,04,50,10.60
2014,07,27,04,51,10.60
2014,07,27,04,52,10.60
2014,07,27,04,53,10.60
2014,07,27,04,54,10.60
2014,07,27,04,55,10.60
2014,07,27,04,56,10.60
2014,07,27,04,57,10.50
2014,07,27,04,58,10.50
2014,07,27,04,59,10.50
2014,07,27,05,00,10.40
2014,07,27,05,01,10.50
2014,07,27,05,02,10.40
2014,07,27,05,03,10.40
2014,07,27,05,04,10.40
2014,07,27,05,05,10.40
2014,07,27,05,06,10.40
2014,07,27,05,07,10.40
2014,07,27,05,08,10.40
2014,07,27,05,09,10.40
2014,07,27,05,10,10.50
2014,07,27,05,11,10.50
2014,07,27,05,12,10.50
2014,07,27,05,13,10.60
2014,07,27,05,14,10.60
2014,07,27,05,15,10.60
2014,07,27,05,16,10.60
2014,07,27,05,17,10.60
2014,07,27,05,18,10.60
2014,07,27,05,19,10.60
2014,07,27,05,20,10.50
2014,07,27,05,21,10.50
2014,07,27,05,22,10.50
2014,07,27,05,23,10.50
2014,07,27,05,24,10.50
2014,07,27,05,25,10.40
2014,07,27,05,26,10.40
2014,07,27,05,27,10.40
2014,07,27,05,28,10.40
2014,07,27,05,29,10.40
2014,07,27,05,30,10.40
2014,07,27,05,31,10.40
2014,07,27,05,32,10.40
2014,07,27,05,33,10.40
2014,07,27,05,34,10.40
2014,07,27,05,35,10.30
2014,07,27,05,36,10.30
2014,07,27,05,37,10.30
2014,07,27,05,38,10.30
2014,07,27,05,39,10.40
2014,07,27,05,40,10.40
2014,07,27,05,41,10.40
2014,07,27,05,42,10.40
2014,07,27,05,43,10.40
2014,07,27,05,44,10.30
2014,07,27,05,45,10.30
2014,07,27,05,46,10.30
2014,07,27,05,47,10.30
2014,07,27,05,48,10.30
2014,07,27,05,49,10.30
2014,07,27,05,50,10.30
2014,07,27,05,51,10.30
2014,07,27,05,52,10.30
2014,07,27,05,53,10.30
2014,07,27,05,54,10.30
2014,07,27,05,55,10.20
2014,07,27,05,56,10.20
2014,07,27,05,57,10.30
2014,07,27,05,58,10.30
2014,07,27,05,59,10.30
2014,07,27,06,00,10.30
2014,07,27,06,01,10.30
2014,07,27,06,02,10.30
2014,07,27,06,03,10.30
2014,07,27,06,04,10.30
2014,07,27,06,05,10.30
2014,07,27,06,06,10.30
2014,07,27,06,07,10.30
2014,07,27,06,08,10.30
2014,07,27,06,09,10.30
2014,07,27,06,10,10.30
2014,07,27,06,11,10.30
2014,07,27,06,12,10.30
2014,07,27,06,13,10.30
2014,07,27,06,14,10.30
2014,07,27,06,15,10.30
2014,07,27,06,16,10.30
2014,07,27,06,17,10.30
2014,07,27,06,18,10.30
2014,07,27,06,19,10.30
2014,07,27,06,20,10.30
2014,07,27,06,21,10.30
2014,07,27,06,22,10.30
2014,07,27,06,23,10.30
2014,07,27,06,24,10.30
2014,07,27,06,25,10.30
2014,07,27,06,26,10.30
2014,07,27,06,27,10.40
2014,07,27,06,28,10.40
2014,07,27,06,29,10.40
2014,07,27,06,30,10.40
2014,07,27,06,31,10.40
2014,07,27,06,32,10.40
2014,07,27,06,33,10.50
2014,07,27,06,34,10.50
2014,07,27,06,35,10.50
2014,07,27,06,36,10.50
2014,07,27,06,37,10.60
2014,07,27,06,38,10.60
2014,07,27,06,39,10.60
2014,07,27,06,40,10.60
2014,07,27,06,41,10.60
2014,07,27,06,42,10.70
2014,07,27,06,43,10.70
2014,07,27,06,44,10.70
2014,07,27,06,45,10.80
2014,07,27,06,46,10.80
2014,07,27,06,47,10.90
2014,07,27,06,48,10.90
2014,07,27,06,49,10.90
2014,07,27,06,50,11.00
2014,07,27,06,51,11.00
2014,07,27,06,52,11.10
2014,07,27,06,53,11.10
2014,07,27,06,54,11.20
2014,07,27,06,55,11.20
2014,07,27,06,56,11.20
2014,07,27,06,57,11.30
2014,07,27,06,58,11.30
2014,07,27,06,59,11.30
2014,07,27,07,00,11.40
2014,07,27,07,01,11.40
2014,07,27,07,02,11.50
2014,07,27,07,03,11.60
2014,07,27,07,04,11.60
2014,07,27,07,05,11.60
2014,07,27,07,06,11.70
2014,07,27,07,07,11.80
2014,07,27,07,08,11.90
2014,07,27,07,09,12.00
2014,07,27,07,10,12.00
2014,07,27,07,11,12.10
2014,07,27,07,12,12.20
2014,07,27,07,13,12.20
2014,07,27,07,14,12.30
2014,07,27,07,15,12.40
2014,07,27,07,16,12.40
2014,07,27,07,17,12.50
2014,07,27,07,18,12.60
2014,07,27,07,19,12.70
2014,07,27,07,20,12.70
2014,07,27,07,21,12.80
2014,07,27,07,22,12.90
2014,07,27,07,23,12.90
2014,07,27,07,24,13.00
2014,07,27,07,25,13.10
2014,07,27,07,26,13.10
2014,07,27,07,27,13.20
2014,07,27,07,28,13.20
2014,07,27,07,29,13.30
2014,07,27,07,30,13.40
2014,07,27,07,31,13.50
2014,07,27,07,32,13.60
2014,07,27,07,33,13.70
2014,07,27,07,34,13.80
2014,07,27,07,35,13.90
2014,07,27,07,36,14.10
2014,07,27,07,37,14.20
2014,07,27,07,38,14.30
2014,07,27,07,39,14.40
2014,07,27,07,40,14.50
2014,07,27,07,41,14.60
2014,07,27,07,42,14.70
2014,07,27,07,43,14.80
2014,07,27,07,44,14.90
2014,07,27,07,45,15.00
2014,07,27,07,46,15.10
2014,07,27,07,47,15.20
2014,07,27,07,48,15.30
2014,07,27,07,49,15.50
2014,07,27,07,50,15.60
2014,07,27,07,51,15.70
2014,07,27,07,52,15.80
2014,07,27,07,53,15.90
2014,07,27,07,54,15.90
2014,07,27,07,55,16.00
2014,07,27,07,56,16.10
2014,07,27,07,57,16.20
2014,07,27,07,58,16.30
2014,07,27,07,59,16.40
2014,07,27,08,00,16.50
2014,07,27,08,01,16.60
2014,07,27,08,02,16.70
2014,07,27,08,03,16.80
2014,07,27,08,04,16.90
2014,07,27,08,05,17.10
2014,07,27,08,06,17.20
2014,07,27,08,07,17.40
2014,07,27,08,08,17.50
2014,07,27,08,09,17.70
2014,07,27,08,10,17.80
2014,07,27,08,11,17.90
2014,07,27,08,12,18.10
2014,07,27,08,13,18.20
2014,07,27,08,14,18.30
2014,07,27,08,15,18.50
2014,07,27,08,16,18.60
2014,07,27,08,17,18.60
2014,07,27,08,18,18.70
2014,07,27,08,19,18.70
2014,07,27,08,20,18.80
2014,07,27,08,21,18.80
2014,07,27,08,22,18.80
2014,07,27,08,23,18.80
2014,07,27,08,24,18.80
2014,07,27,08,25,18.80
2014,07,27,08,26,18.80
2014,07,27,08,27,18.80
2014,07,27,08,28,18.80
2014,07,27,08,29,18.80
2014,07,27,08,30,18.80
2014,07,27,08,31,18.70
2014,07,27,08,32,18.60
2014,07,27,08,33,18.40
2014,07,27,08,34,18.30
2014,07,27,08,35,18.10
2014,07,27,08,36,17.90
2014,07,27,08,37,17.80
2014,07,27,08,38,17.70
2014,07,27,08,39,17.50
2014,07,27,08,40,17.40
2014,07,27,08,41,17.30
2014,07,27,08,42,17.30
2014,07,27,08,43,17.20
2014,07,27,08,44,17.20
2014,07,27,08,45,17.20
2014,07,27,08,46,17.20
2014,07,27,08,47,17.10
2014,07,27,08,48,17.20
2014,07,27,08,49,17.20
2014,07,27,08,50,17.20
2014,07,27,08,51,17.20
2014,07,27,08,52,17.20
2014,07,27,08,53,17.30
2014,07,27,08,54,17.30
2014,07,27,08,55,17.30
2014,07,27,08,56,17.30
2014,07,27,08,57,17.40
2014,07,27,08,58,17.40
2014,07,27,08,59,17.50
2014,07,27,09,00,17.50
2014,07,27,09,01,17.60
2014,07,27,09,02,17.70
2014,07,27,09,03,17.70
2014,07,27,09,04,17.80
2014,07,27,09,05,17.80
2014,07,27,09,06,17.90
2014,07,27,09,07,17.90
2014,07,27,09,08,18.00
2014,07,27,09,09,18.10
2014,07,27,09,10,18.10
2014,07,27,09,11,18.20
2014,07,27,09,12,18.20
2014,07,27,09,13,18.20
2014,07,27,09,14,18.20
2014,07,27,09,15,18.20
2014,07,27,09,16,18.30
2014,07,27,09,17,18.30
2014,07,27,09,18,18.30
2014,07,27,09,19,18.30
2014,07,27,09,20,18.40
2014,07,27,09,21,18.40
2014,07,27,09,22,18.50
2014,07,27,09,23,18.50
2014,07,27,09,24,18.60
2014,07,27,09,25,18.70
2014,07,27,09,26,18.70
2014,07,27,09,27,18.70
2014,07,27,09,28,18.70
2014,07,27,09,29,18.70
2014,07,27,09,30,18.70
2014,07,27,09,31,18.70
2014,07,27,09,32,18.70
2014,07,27,09,33,18.70
2014,07,27,09,34,18.80
2014,07,27,09,35,18.80
2014,07,27,09,36,18.80
2014,07,27,09,37,18.90
2014,07,27,09,38,18.90
2014,07,27,09,39,18.90
2014,07,27,09,40,19.00
2014,07,27,09,41,19.10
2014,07,27,09,42,19.10
2014,07,27,09,43,19.20
2014,07,27,09,44,19.20
2014,07,27,09,45,19.30
2014,07,27,09,46,19.30
2014,07,27,09,47,19.30
2014,07,27,09,48,19.30
2014,07,27,09,49,19.30
2014,07,27,09,50,19.30
2014,07,27,09,51,19.30
2014,07,27,09,52,19.30
2014,07,27,09,53,19.30
2014,07,27,09,54,19.30
2014,07,27,09,55,19.30
2014,07,27,09,56,19.40
2014,07,27,09,57,19.40
2014,07,27,09,58,19.40
2014,07,27,09,59,19.40
2014,07,27,10,00,19.40
2014,07,27,10,01,19.50
2014,07,27,10,02,19.50
2014,07,27,10,03,19.50
2014,07,27,10,04,19.50
2014,07,27,10,05,19.60
2014,07,27,10,06,19.60
2014,07,27,10,07,19.60
2014,07,27,10,08,19.60
2014,07,27,10,09,19.60
2014,07,27,10,10,19.60
2014,07,27,10,11,19.60
2014,07,27,10,12,19.60
2014,07,27,10,13,19.70
2014,07,27,10,14,19.70
2014,07,27,10,15,19.70
2014,07,27,10,16,19.70
2014,07,27,10,17,19.70
2014,07,27,10,18,19.70
2014,07,27,10,19,19.70
2014,07,27,10,20,19.70
2014,07,27,10,21,19.70
2014,07,27,10,22,19.70
2014,07,27,10,23,19.60
2014,07,27,10,24,19.60
2014,07,27,10,25,19.50
2014,07,27,10,26,19.50
2014,07,27,10,27,19.40
2014,07,27,10,28,19.40
2014,07,27,10,29,19.40
2014,07,27,10,30,19.40
2014,07,27,10,31,19.40
2014,07,27,10,32,19.30
2014,07,27,10,33,19.30
2014,07,27,10,34,19.20
2014,07,27,10,35,19.20
2014,07,27,10,36,19.20
2014,07,27,10,37,19.20
2014,07,27,10,38,19.20
2014,07,27,10,39,19.20
2014,07,27,10,40,19.30
2014,07,27,10,41,19.30
2014,07,27,10,42,19.30
2014,07,27,10,43,19.40
2014,07,27,10,44,19.40
2014,07,27,10,45,19.40
2014,07,27,10,46,19.50
2014,07,27,10,47,19.50
2014,07,27,10,48,19.50
2014,07,27,10,49,19.60
2014,07,27,10,50,19.60
2014,07,27,10,51,19.60
2014,07,27,10,52,19.70
2014,07,27,10,53,19.70
2014,07,27,10,54,19.80
2014,07,27,10,55,19.80
2014,07,27,10,56,19.90
2014,07,27,10,57,20.00
2014,07,27,10,58,20.10
2014,07,27,10,59,20.20
2014,07,27,11,00,20.30
2014,07,27,11,01,20.40
2014,07,27,11,02,20.60
2014,07,27,11,03,20.70
2014,07,27,11,04,20.80
2014,07,27,11,05,20.90
2014,07,27,11,06,20.90
2014,07,27,11,07,21.00
2014,07,27,11,08,21.10
2014,07,27,11,09,21.20
2014,07,27,11,10,21.20
2014,07,27,11,11,21.20
2014,07,27,11,12,21.20
2014,07,27,11,13,21.20
2014,07,27,11,14,21.20
2014,07,27,11,15,21.10
2014,07,27,11,16,21.00
2014,07,27,11,17,20.90
2014,07,27,11,18,20.80
2014,07,27,11,19,20.80
2014,07,27,11,20,20.80
2014,07,27,11,21,20.80
2014,07,27,11,22,20.80
2014,07,27,11,23,20.80
2014,07,27,11,24,20.80
2014,07,27,11,25,20.80
2014,07,27,11,26,20.90
2014,07,27,11,27,20.90
2014,07,27,11,28,21.00
2014,07,27,11,29,21.10
2014,07,27,11,30,21.20
2014,07,27,11,31,21.30
2014,07,27,11,32,21.40
2014,07,27,11,33,21.50
2014,07,27,11,34,21.50
2014,07,27,11,35,21.50
2014,07,27,11,36,21.50
2014,07,27,11,37,21.50
2014,07,27,11,38,21.40
2014,07,27,11,39,21.40
2014,07,27,11,40,21.40
2014,07,27,11,41,21.40
2014,07,27,11,42,21.40
2014,07,27,11,43,21.40
2014,07,27,11,44,21.40
2014,07,27,11,45,21.40
2014,07,27,11,46,21.30
2014,07,27,11,47,21.30
2014,07,27,11,48,21.20
2014,07,27,11,49,21.10
2014,07,27,11,50,21.00
2014,07,27,11,51,21.00
2014,07,27,11,52,21.00
2014,07,27,11,53,21.00
2014,07,27,11,54,21.00
2014,07,27,11,55,21.00
2014,07,27,11,56,21.00
2014,07,27,11,57,21.00
2014,07,27,11,58,21.00
2014,07,27,11,59,21.00
2014,07,27,12,00,21.00
2014,07,27,12,01,21.00
2014,07,27,12,02,21.00
2014,07,27,12,03,21.00
2014,07,27,12,04,21.00
2014,07,27,12,05,20.90
2014,07,27,12,06,20.90
2014,07,27,12,07,20.90
2014,07,27,12,08,20.90
2014,07,27,12,09,20.90
2014,07,27,12,10,20.90
2014,07,27,12,11,21.00
2014,07,27,12,12,21.00
2014,07,27,12,13,21.00
2014,07,27,12,14,21.00
2014,07,27,12,15,21.00
2014,07,27,12,16,21.00
2014,07,27,12,17,21.00
2014,07,27,12,18,21.00
2014,07,27,12,19,21.10
2014,07,27,12,20,21.10
2014,07,27,12,21,21.20
2014,07,27,12,22,21.30
2014,07,27,12,23,21.40
2014,07,27,12,24,21.50
2014,07,27,12,25,21.50
2014,07,27,12,26,21.60
2014,07,27,12,27,21.60
2014,07,27,12,28,21.60
2014,07,27,12,29,21.60
2014,07,27,12,30,21.70
2014,07,27,12,31,21.80
2014,07,27,12,32,21.90
2014,07,27,12,33,21.90
2014,07,27,12,34,21.90
2014,07,27,12,35,21.90
2014,07,27,12,36,21.90
2014,07,27,12,37,21.90
2014,07,27,12,38,21.90
2014,07,27,12,39,21.80
2014,07,27,12,40,21.80
2014,07,27,12,41,21.80
2014,07,27,12,42,21.80
2014,07,27,12,43,21.80
2014,07,27,12,44,21.80
2014,07,27,12,45,21.80
2014,07,27,12,46,21.70
2014,07,27,12,47,21.50
2014,07,27,12,48,21.40
2014,07,27,12,49,21.30
2014,07,27,12,50,21.30
2014,07,27,12,51,21.30
2014,07,27,12,52,21.30
2014,07,27,12,53,21.20
2014,07,27,12,54,21.20
2014,07,27,12,55,21.20
2014,07,27,12,56,21.20
2014,07,27,12,57,21.30
2014,07,27,12,58,21.30
2014,07,27,12,59,21.30
2014,07,27,13,00,21.30
2014,07,27,13,01,21.30
2014,07,27,13,02,21.30
2014,07,27,13,03,21.30
2014,07,27,13,04,21.40
2014,07,27,13,05,21.40
2014,07,27,13,06,21.40
2014,07,27,13,07,21.40
2014,07,27,13,08,21.40
2014,07,27,13,09,21.40
2014,07,27,13,10,21.40
2014,07,27,13,11,21.50
2014,07,27,13,12,21.60
2014,07,27,13,13,21.60
2014,07,27,13,14,21.60
2014,07,27,13,15,21.70
2014,07,27,13,16,21.80
2014,07,27,13,17,21.90
2014,07,27,13,18,22.00
2014,07,27,13,19,22.00
2014,07,27,13,20,22.10
2014,07,27,13,21,22.10
2014,07,27,13,22,22.20
2014,07,27,13,23,22.20
2014,07,27,13,24,22.20
2014,07,27,13,25,22.30
2014,07,27,13,26,22.30
2014,07,27,13,27,22.30
2014,07,27,13,28,22.30
2014,07,27,13,29,22.30
2014,07,27,13,30,22.20
2014,07,27,13,31,22.20
2014,07,27,13,32,22.30
2014,07,27,13,33,22.30
2014,07,27,13,34,22.30
2014,07,27,13,35,22.30
2014,07,27,13,36,22.30
2014,07,27,13,37,22.40
2014,07,27,13,38,22.40
2014,07,27,13,39,22.40
2014,07,27,13,40,22.50
2014,07,27,13,41,22.50
2014,07,27,13,42,22.50
2014,07,27,13,43,22.50
2014,07,27,13,44,22.50
2014,07,27,13,45,22.40
2014,07,27,13,46,22.40
2014,07,27,13,47,22.50
2014,07,27,13,48,22.50
2014,07,27,13,49,22.60
2014,07,27,13,50,22.60
2014,07,27,13,51,22.50
2014,07,27,13,52,22.50
2014,07,27,13,53,22.40
2014,07,27,13,54,22.50
2014,07,27,13,55,22.50
2014,07,27,13,56,22.50
2014,07,27,13,57,22.60
2014,07,27,13,58,22.60
2014,07,27,13,59,22.60
2014,07,27,14,00,22.60
2014,07,27,14,01,22.60
2014,07,27,14,02,22.60
2014,07,27,14,03,22.60
2014,07,27,14,04,22.60
2014,07,27,14,05,22.60
2014,07,27,14,06,22.60
2014,07,27,14,07,22.60
2014,07,27,14,08,22.50
2014,07,27,14,09,22.40
2014,07,27,14,10,22.30
2014,07,27,14,11,22.30
2014,07,27,14,12,22.30
2014,07,27,14,13,22.30
2014,07,27,14,14,22.30
2014,07,27,14,15,22.20
2014,07,27,14,16,22.20
2014,07,27,14,17,22.20
2014,07,27,14,18,22.30
2014,07,27,14,19,22.40
2014,07,27,14,20,22.50
2014,07,27,14,21,22.60
2014,07,27,14,22,22.80
2014,07,27,14,23,23.00
2014,07,27,14,24,23.20
2014,07,27,14,25,23.30
2014,07,27,14,26,23.50
2014,07,27,14,27,23.60
2014,07,27,14,28,23.70
2014,07,27,14,29,23.70
2014,07,27,14,30,23.70
2014,07,27,14,31,23.70
2014,07,27,14,32,23.70
2014,07,27,14,33,23.80
2014,07,27,14,34,23.80
2014,07,27,14,35,23.80
2014,07,27,14,36,23.80
2014,07,27,14,37,23.80
2014,07,27,14,38,23.80
2014,07,27,14,39,24.00
2014,07,27,14,40,24.10
2014,07,27,14,41,24.20
2014,07,27,14,42,24.30
2014,07,27,14,43,24.30
2014,07,27,14,44,24.20
2014,07,27,14,45,24.20
2014,07,27,14,46,24.10
2014,07,27,14,47,24.10
2014,07,27,14,48,24.00
2014,07,27,14,49,23.90
2014,07,27,14,50,23.90
2014,07,27,14,51,23.90
2014,07,27,14,52,23.80
2014,07,27,14,53,23.80
2014,07,27,14,54,23.70
2014,07,27,14,55,23.70
2014,07,27,14,56,23.70
2014,07,27,14,57,23.60
2014,07,27,14,58,23.50
2014,07,27,14,59,23.40
2014,07,27,15,00,23.30
2014,07,27,15,01,23.20
2014,07,27,15,02,23.10
2014,07,27,15,03,23.10
2014,07,27,15,04,23.10
2014,07,27,15,05,23.10
2014,07,27,15,06,23.20
2014,07,27,15,07,23.20
2014,07,27,15,08,23.20
2014,07,27,15,09,23.20
2014,07,27,15,10,23.20
2014,07,27,15,11,23.20
2014,07,27,15,12,23.20
2014,07,27,15,13,23.20
2014,07,27,15,14,23.20
2014,07,27,15,15,23.30
2014,07,27,15,16,23.30
2014,07,27,15,17,23.40
2014,07,27,15,18,23.40
2014,07,27,15,19,23.50
2014,07,27,15,20,23.50
2014,07,27,15,21,23.60
2014,07,27,15,22,23.60
2014,07,27,15,23,23.70
2014,07,27,15,24,23.70
2014,07,27,15,25,23.80
2014,07,27,15,26,23.90
2014,07,27,15,27,24.00
2014,07,27,15,28,24.10
2014,07,27,15,29,24.10
2014,07,27,15,30,24.20
2014,07,27,15,31,24.40
2014,07,27,15,32,24.50
2014,07,27,15,33,24.60
2014,07,27,15,34,24.60
2014,07,27,15,35,24.70
2014,07,27,15,36,24.70
2014,07,27,15,37,24.80
2014,07,27,15,38,24.90
2014,07,27,15,39,25.00
2014,07,27,15,40,25.10
2014,07,27,15,41,25.10
2014,07,27,15,42,25.20
2014,07,27,15,43,25.30
2014,07,27,15,44,25.30
2014,07,27,15,45,25.30
2014,07,27,15,46,25.40
2014,07,27,15,47,25.40
2014,07,27,15,48,25.40
2014,07,27,15,49,25.40
2014,07,27,15,50,25.50
2014,07,27,15,51,25.50
2014,07,27,15,52,25.60
2014,07,27,15,53,25.60
2014,07,27,15,54,25.60
2014,07,27,15,55,25.70
2014,07,27,15,56,25.70
2014,07,27,15,57,25.70
2014,07,27,15,58,25.80
2014,07,27,15,59,25.80
2014,07,27,16,00,25.80
2014,07,27,16,01,25.90
2014,07,27,16,02,26.00
2014,07,27,16,03,26.00
2014,07,27,16,04,26.10
2014,07,27,16,05,26.10
2014,07,27,16,06,26.20
2014,07,27,16,07,26.20
2014,07,27,16,08,26.20
2014,07,27,16,09,26.20
2014,07,27,16,10,26.20
2014,07,27,16,11,26.20
2014,07,27,16,12,26.20
2014,07,27,16,13,26.10
2014,07,27,16,14,26.10
2014,07,27,16,15,26.00
2014,07,27,16,16,26.00
2014,07,27,16,17,25.90
2014,07,27,16,18,25.90
2014,07,27,16,19,25.90
2014,07,27,16,20,26.00
2014,07,27,16,21,26.00
2014,07,27,16,22,26.10
2014,07,27,16,23,26.20
2014,07,27,16,24,26.20
2014,07,27,16,25,26.30
2014,07,27,16,26,26.30
2014,07,27,16,27,26.20
2014,07,27,16,28,26.20
2014,07,27,16,29,26.20
2014,07,27,16,30,26.20
2014,07,27,16,31,26.20
2014,07,27,16,32,26.20
2014,07,27,16,33,26.30
2014,07,27,16,34,26.30
2014,07,27,16,35,26.30
2014,07,27,16,36,26.30
2014,07,27,16,37,26.30
2014,07,27,16,38,26.30
2014,07,27,16,39,26.30
2014,07,27,16,40,26.30
2014,07,27,16,41,26.30
2014,07,27,16,42,26.20
2014,07,27,16,43,26.30
2014,07,27,16,44,26.30
2014,07,27,16,45,26.30
2014,07,27,16,46,26.30
2014,07,27,16,47,26.30
2014,07,27,16,48,26.30
2014,07,27,16,49,26.30
2014,07,27,16,50,26.30
2014,07,27,16,51,26.40
2014,07,27,16,52,26.40
2014,07,27,16,53,26.50
2014,07,27,16,54,26.50
2014,07,27,16,55,26.60
2014,07,27,16,56,26.60
2014,07,27,16,57,26.70
2014,07,27,16,58,26.70
2014,07,27,16,59,26.80
2014,07,27,17,00,26.80
2014,07,27,17,01,26.90
2014,07,27,17,02,26.90
2014,07,27,17,03,26.90
2014,07,27,17,04,27.00
2014,07,27,17,05,27.00
2014,07,27,17,06,27.10
2014,07,27,17,07,27.10
2014,07,27,17,08,27.10
2014,07,27,17,09,27.10
2014,07,27,17,10,27.10
2014,07,27,17,11,27.10
2014,07,27,17,12,27.10
2014,07,27,17,13,27.10
2014,07,27,17,14,27.10
2014,07,27,17,15,27.10
2014,07,27,17,16,27.10
2014,07,27,17,17,27.10
2014,07,27,17,18,27.20
2014,07,27,17,19,27.20